Ft Lauderdale, FL

1:40 PM EST on November 23, 2017 (GMT -0500)
Fort Lauderdale-Hollywood International

Weather History for KFLL - September, 2012

Change the Weather History Date:

Tuesday, September 11, 2012

  Actual Average Record
Temperature  
Mean Temperature 84 °F 83 °F  
Max Temperature 90 °F 89 °F 94 °F (1987)
Min Temperature 78 °F 78 °F 67 °F (1933)
Cooling Degree Days 19 18  
Month to date cooling degree days 203 204  
Year to date cooling degree days 3392 3370  
Growing Degree Days 34 (Base 50)    
Moisture  
Dew Point 75 °F    
Average Humidity 78    
Maximum Humidity 97    
Minimum Humidity 59    
Precipitation  
Precipitation 0.02 in 0.27 in 3.95 in (1959)
Month to date precipitation 1.04 3.08  
Year to date precipitation 44.37 44.15  
Snow  
Snow 0.00 in - - ()
Month to date snowfall 0.0  
Since 1 July snowfall 0.0  
Since 1 September snowfall 0.0  
Snow Depth 0.00 in    
Sea Level Pressure  
Sea Level Pressure 30.02 in    
Wind  
Wind Speed 9 mph (NE)    
Max Wind Speed 21 mph    
Max Gust Speed 28 mph    
Visibility 10 miles    
Events Rain , Thunderstorm    
T = Trace of Precipitation, MM = Missing Value Source: NWS Daily Summary

Daily Weather History Graph

Daily Weather History Graph

Search for Another Location

Airport or City:

Trip Planner

Search our weather history database for the weather conditions in past years. The results will help you decide how hot, cold, wet, or windy it might be!

Date:

Astronomy

Sep. 11, 2012 Rise Set
Actual Time 7:04 AM EDT 7:28 PM EDT
Civil Twilight 6:41 AM EDT 7:51 PM EDT
Nautical Twilight 6:14 AM EDT 8:18 PM EDT
Astronomical Twilight 5:47 AM EDT 8:46 PM EDT
Moon 2:42 AM EDT (9/11) 4:19 PM EDT (9/11)
Length of Visible Light 13h 10m
Length of Day
12h 23m
Waning Crescent, 21% of the Moon is Illuminated
Sep 11
Waning Crescent
Sep 15
New
Sep 22
First Quarter
Sep 29
Full
Oct 8
Last Quarter

Hourly Weather History & Observations

Time (EDT) Temp. Heat Index Dew Point Humidity Pressure Visibility Wind Dir Wind Speed Gust Speed Precip Events Conditions
12:16 AM 80.6 °F 86.2 °F 75.2 °F 84% 30.01 in 10.0 mi Calm Calm - N/A   Mostly Cloudy
12:53 AM 80.1 °F 85.4 °F 75.9 °F 87% 30.01 in 10.0 mi WNW 5.8 mph - 0.00 in Rain Light Rain
1:53 AM 79.0 °F - 77.0 °F 94% 29.99 in 10.0 mi West 3.5 mph - 0.03 in   Mostly Cloudy
2:53 AM 79.0 °F - 77.0 °F 94% 30.00 in 10.0 mi West 3.5 mph - N/A   Mostly Cloudy
3:53 AM 79.0 °F - 75.9 °F 90% 29.99 in 10.0 mi NW 3.5 mph - N/A   Partly Cloudy
4:53 AM 78.1 °F - 75.9 °F 93% 29.99 in 10.0 mi NNW 3.5 mph - N/A   Clear
5:53 AM 79.0 °F - 75.0 °F 88% 29.99 in 10.0 mi Calm Calm - N/A   Clear
6:53 AM 78.1 °F - 75.0 °F 90% 30.01 in 10.0 mi Calm Calm - N/A   Partly Cloudy
7:53 AM 79.0 °F - 75.0 °F 88% 30.02 in 10.0 mi NNW 4.6 mph - N/A   Partly Cloudy
8:53 AM 82.0 °F 88.6 °F 75.0 °F 79% 30.04 in 10.0 mi North 4.6 mph - N/A   Partly Cloudy
9:53 AM 86.0 °F 95.1 °F 75.0 °F 70% 30.05 in 10.0 mi NNW 4.6 mph - N/A   Partly Cloudy
10:53 AM 89.1 °F 99.1 °F 75.0 °F 63% 30.06 in 10.0 mi NNE 8.1 mph - N/A   Scattered Clouds
11:53 AM 89.1 °F 97.0 °F 73.0 °F 59% 30.06 in 10.0 mi ENE 6.9 mph - N/A   Scattered Clouds
12:53 PM 89.1 °F 98.0 °F 73.9 °F 61% 30.05 in 10.0 mi East 11.5 mph - N/A   Partly Cloudy
1:53 PM 89.1 °F 99.1 °F 75.0 °F 63% 30.03 in 10.0 mi NE 11.5 mph - N/A   Partly Cloudy
2:46 PM 87.8 °F 97.6 °F 75.2 °F 66% 30.01 in 10.0 mi East 13.8 mph - N/A Thunderstorm Thunderstorm
2:53 PM 87.1 °F 96.3 °F 75.0 °F 67% 30.02 in 10.0 mi ENE 13.8 mph - N/A Thunderstorm Thunderstorm
3:53 PM 84.9 °F 93.3 °F 75.0 °F 72% 30.01 in 10.0 mi ENE 15.0 mph - 0.00 in Rain , Thunderstorm Light Thunderstorms and Rain
4:05 PM 84.2 °F 92.3 °F 75.2 °F 74% 30.00 in 10.0 mi ENE 11.5 mph - 0.00 in Rain Light Rain
4:53 PM 84.0 °F 92.6 °F 75.9 °F 76% 30.01 in 10.0 mi ENE 11.5 mph - 0.00 in Rain Light Rain
5:53 PM 84.9 °F 93.3 °F 75.0 °F 72% 30.00 in 10.0 mi ENE 19.6 mph 27.6 mph 0.00 in   Mostly Cloudy
6:53 PM 84.0 °F 91.9 °F 75.0 °F 74% 30.01 in 10.0 mi East 18.4 mph - N/A   Mostly Cloudy
7:53 PM 84.0 °F 91.9 °F 75.0 °F 74% 30.03 in 10.0 mi ENE 13.8 mph - N/A   Mostly Cloudy
8:53 PM 84.0 °F 91.9 °F 75.0 °F 74% 30.04 in 10.0 mi East 11.5 mph - N/A   Scattered Clouds
9:53 PM 84.0 °F 91.9 °F 75.0 °F 74% 30.05 in 10.0 mi East 11.5 mph - N/A   Partly Cloudy
10:53 PM 82.9 °F 89.4 °F 73.9 °F 74% 30.06 in 10.0 mi East 12.7 mph - 0.00 in   Scattered Clouds
11:53 PM 84.0 °F 90.2 °F 73.0 °F 69% 30.05 in 10.0 mi East 11.5 mph - N/A   Scattered Clouds